Back to catalog

OPS 4682 DEB

AlivePO
NORAD 38459·DEBRIS·🇺🇸 United States

Launched Apr 3, 1965 from Vandenberg Space Force Base

Loading…

Next Passes (next 24 hours)

TLE

FreshSource: Space-Track

Epoch: Sep 13, 2026, 13:05 UTC

1 38459U 65027FQ  26256.54532278 -.00000232  00000-0 -88004-3 0  9998
2 38459  90.2458   8.0482 0029699  59.8310 300.5744 12.92922445559903

Track OPS 4682 DEB in real time with AllMySat

Download on the App Store